Tracking 22441 objects as of 1-Mar-2021
HD Live streaming from Space Station
objects crossing your sky now

DIRECTV 3 (DBS/NIMIQ 3)

Track DIRECTV 3 (DBS/NIMIQ 3) now!
DIRECTV 3 (DBS/NIMIQ 3) is classified as:


NORAD ID: 23598
Int'l Code: 1995-029A
Perigee: 36,108.3 km
Apogee: 36,199.0 km
Inclination: 8.7 °
Period: 1,454.5 minutes
Semi major axis: 42524 km
RCS: 31.8223 m2 (large)
Launch date: June 10, 1995
Source: United States (US)
Launch site: FRENCH GUIANA (FRGUI)

On-orbit backup; high resolution TV broadcast; USA and Western Hemispheric countries; 30 TV channels.
aabbcc
Your satellite tracking list
Your tracking list is empty




NASA's NSSDC Master Catalog

Two Line Element Set (TLE):
1 23598U 95029A   21059.33483543 -.00000152  00000-0  00000-0 0  9991
2 23598   8.6669  47.9173 0010659 341.4731 359.0799  0.99001551 93609
Source of the keplerian elements: AFSPC